Location: Detroit
(42.3310°N, 83.0460°W)
Time: 20:26:05
(UTC-04:00)

A-11 Canister half - Pass Details

Date: 12 February 2023
Orbit: 1526 x 1682 km, 47.3° (Epoch: 29 March)

Event Time Altitude Azimuth Distance (km) Brightness Sun altitude
Rises 04:31:59 0° 244° (WSW) 4,698 - -33.9°
Reaches altitude 10° 04:35:02 10° 244° (WSW) 3,705 - -33.3°
Exits shadow 04:42:55 68° 248° (WSW) 1,621 8.7 -31.9°
Maximum altitude 04:44:23 89° 334° (NNW) 1,530 8.8 -31.6°
Drops below altitude 10° 04:53:46 10° 67° (ENE) 3,710 11.9 -29.9°
Sets 04:56:49 0° 67° (ENE) 4,705 12.7 -29.3°
